Wind_Speed
41 45 42 41 35 32 35 32 31 33 34 32 32 30 29 31 32 33 34 35 36 36 37 37 38 37 39 39 42 42 39 40 44
53 44 44 42 37 37 40 39 37 36 34 35 34 33 32 31 32 34 34 35 35 37 39 39 40 41 39 38 34 32 32 31 30
53 53 50 45 37 40 42 38 36 36 34 35 34 33 33 34 32 34 35 34 34 34 35 36 37 39 38 36 33 33 32 30 31
54 57 56 53 49 41 41 42 40 39 41 39 37 36 35 35 35 35 34 34 35 35 35 35 35 34 34 34 33 33 31 31 31
60 54 54 50 51 50 44 46 44 45 43 43 41 39 39 39 39 38 38 36 35 36 35 34 32 32 32 33 33 34 33 33 34
62 64 59 56 50 49 54 49 47 47 47 46 43 42 42 43 43 41 41 40 39 39 37 35 34 34 34 34 35 34 35 35 35
70 68 65 65 58 52 53 54 53 49 50 47 46 44 45 46 46 47 46 44 43 42 41 39 37 37 36 34 34 36 37 36 36
76 71 69 70 69 64 57 52 55 56 52 53 52 49 49 48 49 51 50 48 47 46 44 42 39 39 37 35 33 35 35 37 38
76 77 74 69 75 73 72 69 60 61 61 61 55 54 52 50 51 52 51 51 51 50 48 46 44 42 39 34 36 36 36 38 40
86 71 74 72 67 69 74 70 73 71 67 66 65 60 60 56 56 56 52 51 54 55 53 51 49 46 45 40 35 37 38 40 41
92 85 63 69 79 72 72 72 69 71 71 70 70 66 64 61 63 61 58 54 54 57 55 55 51 52 52 47 43 39 40 43 44
97 91 65 68 76 83 79 75 75 73 72 73 71 72 71 67 69 68 64 61 58 57 55 55 54 53 55 52 49 45 41 42 43
102 100 90 77 76 75 83 85 81 75 76 76 73 72 70 71 71 73 70 69 65 63 60 58 56 55 54 55 54 51 49 44 46
102 105 105 78 86 75 83 85 85 85 81 81 81 71 69 71 70 72 74 71 71 68 68 66 63 62 60 59 57 56 53 53 51
101 104 106 105 86 89 81 86 85 89 88 87 82 85 78 72 70 72 71 72 75 75 76 70 68 67 66 65 65 63 61 58 57
103 103 108 108 106 99 89 82 85 90 93 97 94 87 85 84 84 82 80 78 75 76 75 78 76 73 69 70 68 66 65 64 64
110 110 108 111 109 102 96 93 87 90 96 98 97 98 95 90 85 85 88 86 86 83 76 74 73 73 72 70 70 70 69 69 67
113 116 118 113 112 108 99 90 86 79 91 94 98 101 98 99 99 94 89 89 91 90 89 89 88 86 83 82 80 76 74 76 77
96 108 122 121 117 112 108 101 94 93 89 94 101 101 100 99 103 100 100 100 97 93 94 93 93 93 93 92 91 89 87 80 78
96 107 108 123 126 118 115 107 106 108 96 94 97 102 106 105 101 99 100 102 102 100 101 103 102 99 98 96 95 94 94 93 93
Wind_Direction
235 237 239 237 237 241 243 244 240 242 243 243 244 246 245 247 249 247 244 247 248 250 254 252 253 255 258 260 263 262 260 262 265
236 235 241 239 245 253 249 247 249 245 244 245 246 246 249 248 248 250 250 249 251 252 252 254 256 260 264 266 267 265 262 265 272
235 238 236 238 243 255 248 245 246 245 245 246 247 248 250 251 252 251 253 253 254 253 255 255 256 259 265 270 270 269 269 270 271
235 234 237 240 236 239 251 245 247 248 252 252 250 250 251 253 253 253 253 255 255 256 257 259 261 262 265 266 269 271 273 273 275
236 236 236 237 242 243 245 246 248 247 250 248 247 248 252 252 254 254 254 254 255 257 257 260 263 266 266 267 269 270 270 271 271
237 239 237 236 237 241 241 243 246 250 251 245 246 248 249 251 250 251 251 253 253 255 258 261 263 265 267 270 272 273 270 269 269
242 240 240 242 237 237 245 246 246 242 243 244 245 247 248 251 252 249 247 248 252 254 257 260 263 265 265 267 270 271 269 268 269
239 242 244 243 244 240 239 246 250 245 245 246 243 245 246 249 254 252 251 250 250 253 255 258 262 262 263 263 266 269 271 268 268
236 240 244 243 245 244 243 243 243 249 252 249 242 240 242 246 250 254 255 253 252 251 255 257 257 258 259 263 262 265 267 267 267
234 237 238 241 240 244 245 244 246 246 248 248 245 244 241 239 243 248 252 256 253 253 258 256 257 258 258 260 262 263 264 266 266
233 235 233 240 243 238 241 239 239 241 242 244 245 241 237 241 241 242 246 251 254 256 259 260 260 260 260 259 260 259 264 265 267
236 232 230 237 238 242 238 238 236 238 242 244 244 243 243 246 246 244 244 246 249 255 257 260 261 263 263 264 263 260 259 265 269
233 234 232 234 235 236 241 238 237 235 239 241 242 245 245 247 246 248 247 246 247 250 254 254 257 260 263 264 264 266 262 261 266
236 235 235 232 236 235 236 239 238 235 236 241 241 241 244 242 244 247 251 249 248 248 251 253 255 257 259 260 261 262 263 265 264
234 235 235 235 229 231 234 235 239 239 232 234 240 240 237 238 240 244 247 250 251 252 250 251 253 255 259 260 261 261 262 262 264
236 235 235 234 235 232 236 235 237 237 239 236 235 236 238 241 243 243 244 245 249 250 250 250 250 252 256 258 258 259 262 263 263
238 234 234 235 233 235 232 236 239 239 239 239 237 238 237 236 241 244 244 245 248 247 245 247 249 252 253 253 256 258 259 261 261
238 236 233 233 234 233 231 230 233 236 240 240 239 237 238 238 239 240 243 245 246 248 249 250 252 253 254 254 255 256 258 259 260
240 238 235 233 232 233 231 229 228 236 237 236 240 237 236 237 239 241 243 245 246 246 249 251 253 255 257 256 254 255 255 255 257
242 238 236 233 230 230 232 229 230 234 233 235 238 238 236 238 238 242 244 247 248 249 251 250 251 252 255 257 257 258 259 260 260
Height
10804 10808 10810 10812 10815 10818 10820 10822 10824 10827 10829 10831 10834 10835 10837 10839 10841 10843 10845 10846 10848 10849 10851 10852 10855 10856 10857 10857 10858 10859 10858 10858 10859
10795 10798 10802 10805 10808 10810 10813 10815 10817 10820 10823 10825 10827 10829 10832 10833 10836 10837 10839 10840 10842 10844 10845 10847 10849 10849 10849 10851 10852 10852 10851 10852 10853
10785 10789 10793 10796 10800 10803 10806 10808 10810 10813 10816 10819 10821 10823 10825 10827 10830 10831 10833 10835 10836 10838 10839 10841 10842 10843 10843 10845 10845 10845 10846 10847 10848
10774 10778 10782 10786 10791 10794 10798 10801 10803 10806 10810 10812 10815 10817 10818 10821 10822 10824 10826 10829 10830 10831 10833 10835 10836 10837 10838 10839 10839 10839 10840 10840 10841
10762 10766 10770 10776 10781 10786 10788 10792 10794 10797 10800 10804 10807 10810 10812 10813 10815 10817 10819 10821 10823 10824 10826 10828 10830 10831 10832 10832 10833 10833 10834 10834 10834
10753 10757 10761 10765 10770 10774 10778 10781 10785 10788 10791 10794 10798 10802 10804 10806 10807 10810 10811 10814 10816 10817 10819 10822 10823 10825 10825 10827 10827 10827 10826 10827 10828
10742 10748 10754 10757 10761 10764 10768 10772 10775 10777 10780 10784 10789 10793 10796 10798 10799 10801 10802 10805 10807 10809 10812 10814 10816 10817 10818 10819 10819 10820 10819 10821 10821
10729 10735 10742 10747 10751 10757 10759 10762 10764 10767 10770 10774 10779 10783 10786 10791 10792 10792 10794 10798 10799 10801 10804 10806 10809 10809 10811 10811 10813 10811 10813 10813 10813
10718 10724 10730 10735 10739 10744 10750 10752 10754 10756 10759 10762 10768 10771 10776 10781 10782 10783 10787 10789 10791 10791 10794 10797 10800 10801 10801 10804 10805 10804 10805 10805 10806
10707 10712 10717 10720 10726 10730 10734 10740 10742 10746 10748 10749 10755 10760 10764 10769 10770 10772 10778 10781 10782 10782 10785 10787 10791 10792 10793 10795 10795 10797 10797 10796 10797
10692 10701 10706 10708 10710 10716 10721 10724 10729 10732 10733 10736 10742 10748 10752 10756 10757 10761 10766 10770 10773 10773 10776 10777 10781 10783 10784 10786 10786 10787 10788 10788 10788
10671 10684 10689 10679 10690 10698 10705 10710 10715 10719 10721 10723 10729 10735 10740 10744 10748 10749 10754 10759 10761 10762 10765 10767 10770 10773 10773 10776 10777 10777 10778 10779 10780
10653 10661 10668 10666 10675 10681 10686 10694 10701 10704 10707 10707 10713 10717 10726 10730 10736 10736 10742 10747 10748 10750 10752 10755 10758 10760 10762 10764 10766 10767 10769 10769 10770
10633 10642 10648 10654 10660 10665 10665 10673 10681 10688 10692 10692 10696 10703 10709 10715 10720 10725 10728 10734 10734 10738 10738 10742 10746 10747 10749 10751 10754 10756 10757 10760 10760
10611 10618 10627 10635 10641 10643 10646 10653 10661 10667 10674 10677 10680 10687 10696 10698 10703 10707 10713 10716 10717 10722 10724 10728 10731 10734 10736 10738 10741 10743 10745 10748 10747
10589 10598 10603 10611 10620 10626 10632 10638 10634 10648 10654 10658 10666 10671 10682 10683 10686 10690 10695 10699 10700 10706 10709 10713 10716 10720 10723 10725 10727 10729 10732 10733 10735
10561 10571 10580 10587 10598 10607 10616 10620 10627 10628 10631 10640 10647 10655 10660 10667 10671 10672 10678 10681 10684 10689 10693 10696 10700 10704 10708 10710 10711 10714 10716 10717 10720
10529 10539 10550 10563 10572 10587 10599 10606 10606 10606 10607 10617 10624 10636 10645 10646 10649 10654 10656 10660 10664 10670 10676 10679 10682 10686 10689 10692 10694 10696 10698 10700 10702
10501 10507 10519 10532 10547 10561 10573 10582 10587 10582 10585 10596 10599 10612 10620 10624 10631 10634 10636 10638 10645 10652 10657 10661 10664 10667 10668 10672 10675 10676 10679 10680 10684
10470 10474 10482 10498 10514 10532 10542 10557 10561 10562 10573 10572 10580 10586 10595 10604 10611 10612 10616 10617 10623 10629 10634 10639 10645 10648 10650 10651 10654 10657 10659 10662 10665